Terminal Aerodrome Forecast
Issued by NWS

Home | Current Version | Previous Version | Text Only | Print | Product List | Glossary On
Versions: 1 2 3 4 5 6 7 8 9 10 11 12
229
FTAK31 PAJN 281732
TAFAKT
TAF
PAKT 281732Z 2818/2918 18005KT P6SM VCSH SCT020 OVC050
     FM282100 VRB06KT P6SM -SHRA SCT025 BKN050
     FM290600 17005KT P6SM VCSH SCT025 BKN050
      AMD LTD TO CLD VIS AND WIND 2906/2915=

USA.gov is the U.S. government's official web portal to all federal, state and local government web resources and services.